Weather History for Havre, MT

Change the Weather History Date:

Thursday, October 18, 2012

  Actual Average Record
Temperature  
Mean Temperature 38 °F 44 °F  
Max Temperature 57 °F 58 °F 85 °F (1958)
Min Temperature 19 °F 30 °F 6 °F (1905)
Degree Days  
Heating Degree Days 27 21  
Month to date heating degree days 329 322  
Since 1 July heating degree days 543 679  
Cooling Degree Days 0 0  
Month to date cooling degree days 0 0  
Year to date cooling degree days 507 386  
Moisture  
Dew Point 21 °F    
Average Humidity 54    
Maximum Humidity 84    
Minimum Humidity 24    
Precipitation  
Precipitation 0.00 in 0.02 in 0.63 in (1949)
Month to date precipitation 0.84 0.38  
Year to date precipitation 11.17 10.17  
Snow  
Snow 0.00 in 0.10 in 5.80 in (1949)
Month to date snowfall T 0.9  
Since 1 July snowfall T 1.2  
Since 1 September snowfall T 1.2  
Snow Depth 0.00 in    
Sea Level Pressure  
Sea Level Pressure 30.15 in    
Wind  
Wind Speed 7 mph (SW)    
Max Wind Speed 17 mph    
Max Gust Speed 22 mph    
Visibility 10 miles    
Events      
T = Trace of Precipitation, MM = Missing Value Source: NWS Daily Summary

Daily Weather History Graph

Daily Weather History Graph

Search for Another Location

Airport:

Trip Planner

Search our weather history database for the weather conditions in past years. The results will help you decide how hot, cold, wet, or windy it might be!

Date:

Astronomy

Oct. 18, 2012 Rise Set
Actual Time 7:44 AM MDT 6:22 PM MDT
Civil Twilight 7:12 AM MDT 6:54 PM MDT
Nautical Twilight 6:36 AM MDT 7:31 PM MDT
Astronomical Twilight 5:59 AM MDT 8:07 PM MDT
Moon 11:47 AM MDT (10/18) 8:42 PM MDT (10/18)
Length of Visible Light 11h 42m
Length of Day
10h 38m
Waxing Crescent, 15% of the Moon is Illuminated
Oct 18
Waxing Crescent
Oct 21
First Quarter
Oct 29
Full
Nov 6
Last Quarter
Nov 13
New

Hourly Weather History & Observations

Time (MDT) Temp. Windchill Dew Point Humidity Pressure Visibility Wind Dir Wind Speed Gust Speed Precip Events Conditions
12:53 AM 30.0 °F 23.2 °F 19.0 °F 64% 30.21 in 10.0 mi WSW 6.9 mph - N/A   Clear
1:53 AM 28.9 °F 21.1 °F 18.0 °F 64% 30.23 in 10.0 mi SW 8.1 mph - N/A   Clear
2:53 AM 27.0 °F 19.5 °F 18.0 °F 69% 30.24 in 10.0 mi WSW 6.9 mph - N/A   Clear
3:53 AM 24.1 °F 15.2 °F 18.0 °F 77% 30.25 in 10.0 mi SW 8.1 mph - N/A   Clear
4:53 AM 25.0 °F 16.3 °F 18.0 °F 75% 30.25 in 10.0 mi SW 8.1 mph - N/A   Clear
5:53 AM 23.0 °F 13.1 °F 17.1 °F 78% 30.25 in 10.0 mi WSW 9.2 mph - N/A   Clear
6:53 AM 21.0 °F 11.4 °F 17.1 °F 85% 30.26 in 10.0 mi SW 8.1 mph - N/A   Clear
7:53 AM 19.0 °F 11.1 °F 16.0 °F 88% 30.28 in 10.0 mi West 5.8 mph - N/A   Clear
8:53 AM 25.0 °F - 19.0 °F 78% 30.28 in 10.0 mi Calm Calm - N/A   Clear
9:53 AM 33.1 °F 26.9 °F 21.9 °F 64% 30.25 in 10.0 mi SW 6.9 mph - N/A   Clear
10:53 AM 42.1 °F 40.2 °F 21.9 °F 45% 30.21 in 10.0 mi West 3.5 mph - N/A   Clear
11:53 AM 48.0 °F - 21.9 °F 36% 30.19 in 10.0 mi SW 10.4 mph - N/A   Clear
12:53 PM 52.0 °F - 21.0 °F 30% 30.17 in 10.0 mi SW 16.1 mph 21.9 mph N/A   Clear
1:53 PM 54.0 °F - 19.9 °F 26% 30.14 in 10.0 mi SSW 12.7 mph - N/A   Clear
2:53 PM 55.9 °F - 21.0 °F 26% 30.12 in 10.0 mi SSW 11.5 mph - N/A   Clear
3:53 PM 55.9 °F - 21.0 °F 26% 30.11 in 10.0 mi SW 9.2 mph 16.1 mph N/A   Clear
4:53 PM 57.0 °F - 21.9 °F 26% 30.08 in 10.0 mi SW 5.8 mph - N/A   Clear
5:53 PM 53.1 °F - 25.0 °F 34% 30.08 in 10.0 mi ESE 4.6 mph - N/A   Clear
6:53 PM 43.0 °F 40.3 °F 24.1 °F 47% 30.09 in 10.0 mi East 4.6 mph - N/A   Clear
7:53 PM 41.0 °F - 23.0 °F 49% 30.08 in 10.0 mi Calm Calm - N/A   Clear
8:53 PM 39.0 °F 36.8 °F 25.0 °F 57% 30.04 in 10.0 mi ENE 3.5 mph - N/A   Clear
9:53 PM 36.0 °F - 25.0 °F 64% 30.01 in 10.0 mi Calm Calm - N/A   Clear
10:53 PM 36.0 °F 31.1 °F 25.0 °F 64% 29.97 in 10.0 mi ENE 5.8 mph - N/A   Clear
11:53 PM 30.9 °F 24.3 °F 25.0 °F 79% 29.94 in 10.0 mi East 6.9 mph - N/A   Clear